Fairbanks, AK

5:09 AM AKST on November 20, 2019 (GMT -0900)
Fairbanks International

Weather History for PAFA - April, 2019

Change the Weather History Date:

Tuesday, April 30, 2019

  Actual Average Record
Temperature  
Mean Temperature 51 °F 42 °F  
Max Temperature 69 °F 54 °F 76 °F (2009)
Min Temperature 33 °F 31 °F 8 °F (1937)
Degree Days  
Heating Degree Days 14 23  
Month to date heating degree days 835 974  
Since 1 July heating degree days 11262 13024  
Cooling Degree Days 0 0  
Month to date cooling degree days 0 0  
Year to date cooling degree days 0 0  
Growing Degree Days 1 (Base 50)    
Moisture  
Dew Point 25 °F    
Average Humidity 34    
Maximum Humidity 61    
Minimum Humidity 13    
Precipitation  
Precipitation 0.00 in 0.02 in 0.34 in (2008)
Month to date precipitation 0.59 0.31  
Year to date precipitation 2.48 1.56  
Snow  
Snow 0.00 in 0.10 in 3.40 in (2008)
Month to date snowfall 5.4 2.9  
Since 1 July snowfall 57.5 64.1  
Snow Depth 0.00 in    
Sea Level Pressure  
Sea Level Pressure 30.30 in    
Wind  
Wind Speed 5 mph (NNE)    
Max Wind Speed 9 mph    
Max Gust Speed -    
Visibility 10 miles    
Events      
T = Trace of Precipitation, MM = Missing Value Source: NWS Daily Summary

Daily Weather History Graph

Daily Weather History Graph

Search for Another Location

Airport or City:

Astronomy

Apr. 30, 2019 Rise Set
Actual Time 5:22 AM AKDT 10:17 PM AKDT
Civil Twilight 4:10 AM AKDT 11:30 PM AKDT
Nautical Twilight 2:21 AM AKDT 1:16 AM AKDT
Astronomical Twilight Sun does not rise Sun does not rise
Moon 5:57 AM AKDT (4/30) 4:10 PM AKDT (4/30)
Length of Visible Light 19h 20m
Length of Day
16h 55m
Waning Crescent, 16% of the Moon is Illuminated
Apr 30
Waning Crescent
May 4
New
May 11
First Quarter
May 18
Full
May 26
Last Quarter

Hourly Weather History & Observations

Time (AKDT) Temp. Windchill Dew Point Humidity Pressure Visibility Wind Dir Wind Speed Gust Speed Precip Events Conditions
12:53 AM 39.9 °F 35.1 °F 21.9 °F 49% 30.30 in 10.0 mi NE 6.9 mph - N/A   Partly Cloudy
1:53 AM 41.0 °F 37.1 °F 21.9 °F 47% 30.30 in 10.0 mi Variable 5.8 mph - N/A   Partly Cloudy
2:53 AM 39.9 °F 35.1 °F 21.0 °F 47% 30.31 in 10.0 mi NNE 6.9 mph - N/A   Partly Cloudy
3:53 AM 37.9 °F 32.7 °F 21.0 °F 51% 30.32 in 10.0 mi NE 6.9 mph - N/A   Partly Cloudy
4:53 AM 35.1 °F 27.9 °F 21.9 °F 59% 30.33 in 10.0 mi NE 9.2 mph - N/A   Partly Cloudy
5:53 AM 34.0 °F 28.8 °F 21.9 °F 61% 30.35 in 10.0 mi ENE 5.8 mph - N/A   Partly Cloudy
6:53 AM 37.0 °F 33.3 °F 24.1 °F 59% 30.35 in 10.0 mi NNE 4.6 mph - N/A   Partly Cloudy
7:53 AM 43.0 °F 41.3 °F 25.0 °F 49% 30.35 in 10.0 mi North 3.5 mph - N/A   Partly Cloudy
8:53 AM 46.9 °F - 24.1 °F 41% 30.36 in 10.0 mi Calm Calm - N/A   Clear
9:53 AM 51.1 °F - 23.0 °F 33% 30.36 in 10.0 mi North 4.6 mph - N/A   Clear
10:53 AM 55.0 °F - 23.0 °F 29% 30.35 in 10.0 mi NNE 4.6 mph - N/A   Clear
11:53 AM 57.9 °F - 23.0 °F 26% 30.35 in 10.0 mi NNE 4.6 mph - N/A   Clear
12:53 PM 61.0 °F - 23.0 °F 23% 30.34 in 10.0 mi Calm Calm - N/A   Clear
1:53 PM 63.0 °F - 21.9 °F 21% 30.32 in 10.0 mi Calm Calm - N/A   Clear
2:53 PM 64.9 °F - 26.1 °F 23% 30.31 in 10.0 mi Calm Calm - N/A   Clear
3:53 PM 66.0 °F - 27.0 °F 23% 30.30 in 10.0 mi SE 5.8 mph - N/A   Clear
4:53 PM 66.9 °F - 28.0 °F 23% 30.28 in 10.0 mi Variable 3.5 mph - N/A   Partly Cloudy
5:53 PM 66.9 °F - 28.0 °F 23% 30.27 in 10.0 mi Variable 3.5 mph - N/A   Partly Cloudy
6:53 PM 66.9 °F - 28.9 °F 24% 30.25 in 10.0 mi South 5.8 mph - N/A   Partly Cloudy
7:53 PM 66.9 °F - 30.0 °F 25% 30.24 in 10.0 mi South 4.6 mph - N/A   Partly Cloudy
8:53 PM 64.9 °F - 28.9 °F 26% 30.22 in 10.0 mi SSW 3.5 mph - N/A   Partly Cloudy
9:53 PM 60.1 °F - 28.0 °F 30% 30.22 in 10.0 mi NNW 6.9 mph - N/A   Partly Cloudy
10:53 PM 55.9 °F - 27.0 °F 33% 30.22 in 10.0 mi North 9.2 mph - N/A   Clear
11:53 PM 54.0 °F - 26.1 °F 34% 30.22 in 10.0 mi North 9.2 mph - N/A   Clear